sat.trackr.live / text

‹ back to catalog

STARLINK-31320

NORAD 58886 · 2024-020L

PAYLOAD ACTIVE UNKNOWN

§ Identity

Operator
Country
US
Launch date
2024-01-29
Launch site
AFWTR
Launch vehicle
Mass (kg)
RCS (m²)

Purposes: comms

External: N2YO · Heavens-Above · Gunter

§ Orbital elements

Epoch: 2026-05-25T04:42:06.541920Z

Period
93.85 min
Inclination
53.1606°
Eccentricity
0.0001045
Mean motion
15.34394295 rev/d
Perigee alt
462.0 km
Apogee alt
463.4 km
Semi-major
6,840.9 km
B*
6.9874e-5
RAAN
326.4123°
Arg perigee
79.2614°
Mean anomaly
280.8506°
Rev number
12,979

§ Raw data

STARLINK-313201 58886U 24020L   26145.19590905  .00001985  00000+0  69874-4 0  99992 58886  53.1606 326.4123 0001045  79.2614 280.8506 15.34394295129790

JSON: /api/v1/satellites/58886 · /tle

For live sub-satellite position, see the globe view (requires WebGL).

§ Visibility from observer

Set your observer location to see the next 7 days of passes ≥ 10°. The values pass through the URL so the page stays shareable.

No JS? Fill the form by hand. The geolocation button needs JavaScript.